[sarex] 2 Line ISS Keps 10-10

Dave Larsen PhD doc at volcano.net
Mon Oct 9 19:14:19 PDT 2006


ISS
1 25544U 98067A   06282.93793891  .00017929  00000-0  11255-3 0  8294
2 25544 051.6369 316.3023 0013283 078.3109 340.1773 15.76742132451266


More information about the SAREX mailing list